Location: Gisborne
(38.6530°S, 178.0040°E)
Time: 16:48:28
(UTC+12:00)

Cosmos 1328 Rocket - Pass Details

Date: 24 January 2019
Orbit: 601 x 627 km, 82.5° (Epoch: 18 April)

Event Time Altitude Azimuth Distance (km) Brightness Sun altitude
Rises 20:55:40 0° 12° (NNE) 2,895 6.6 -5.3°
Reaches altitude 10° 20:57:59 10° 19° (NNE) 2,001 5.7 -5.7°
Maximum altitude 21:02:07 40° 88° (E) 941 4.1 -6.4°
Drops below altitude 10° 21:06:21 10° 157° (SSE) 2,037 6.3 -7.1°
Sets 21:08:42 0° 164° (SSE) 2,954 7.3 -7.5°
